DW8661 Madrid ES current weather conditions

sailwx.info

Wind from 211 at 1 knots

Air temperature 10.0° C
Dewpoint 8.4° C

Last reported at 2020-Jan-29 01:46 UTC.
Time now 2020-Jan-29 02:26 UTC

Location: N 40°29' W 003°43'.
View on Google Maps.

See reports from other nearby stations

  
Tides and Currents Weather Stations Pressure Air Temp Water Temp Dewpoint Dewpoint Depression Visibility Wind Speed Wind Dir Waves Ship Positions
date/time (UTC)wind fromknots sea level pressurealtimeterstation pressurevisibilityair tempwater tempwave heightnotes
2020-Jan-29 02:00 219 2 10.0
2020-Jan-29 01:46 211 1 10.0
2020-Jan-29 01:31 231 0 10.0
2020-Jan-29 01:16 225 0 10.0
2020-Jan-29 01:01 197 1 10.0
2020-Jan-29 00:46 213 0 10.0
2020-Jan-29 00:31 205 10.0
2020-Jan-29 00:16 207 1 10.0
2020-Jan-29 00:00 187 4 10.0
2020-Jan-28 23:46 224 3 10.0
2020-Jan-28 23:32 229 5 10.0
2020-Jan-28 23:15 213 3 10.0
2020-Jan-28 23:01 238 4 10.0
2020-Jan-28 22:45 205 2 10.0
2020-Jan-28 22:31 211 2 10.0
2020-Jan-28 22:16 190 3 10.0
2020-Jan-28 22:00 202 1 10.0
2020-Jan-28 21:46 165 3 10.0
2020-Jan-28 21:31 222 3 10.0
2020-Jan-28 21:16 190 2 10.0
2020-Jan-28 21:00 222 3 10.0
2020-Jan-28 20:46 196 2 10.0
2020-Jan-28 20:31 219 2 10.0
2020-Jan-28 20:15 211 1 10.0
2020-Jan-28 20:00 206 1 10.0
2020-Jan-28 19:45 196 0 10.0
2020-Jan-28 19:31 207 1 10.0
2020-Jan-28 19:15 193 1 10.0
2020-Jan-28 19:00 208 1 10.0
2020-Jan-28 18:47 195 1 10.0
2020-Jan-28 18:31 191 2 10.6
2020-Jan-28 18:15 197 2 10.6
2020-Jan-28 18:00 191 3 10.6
2020-Jan-28 17:46 200 2 10.6
2020-Jan-28 17:32 195 2 10.6
2020-Jan-28 17:16 286 1 10.6
2020-Jan-28 17:01 231 1 11.1
2020-Jan-28 16:45 203 2 11.1
2020-Jan-28 16:31 248 3 11.1
2020-Jan-28 16:15 232 4 11.1
2020-Jan-28 16:01 193 3 11.7
2020-Jan-28 15:45 217 3 11.1
2020-Jan-28 15:30 220 3 11.1
2020-Jan-28 15:15 210 4 11.1
2020-Jan-28 15:01 202 4 11.7
2020-Jan-28 14:46 244 6 11.7
2020-Jan-28 14:31 206 6 11.7
2020-Jan-28 14:15 209 6 11.7
2020-Jan-28 14:00 171 3 11.7
2020-Jan-28 13:45 205 3 11.7
2020-Jan-28 13:30 248 4 12.2
2020-Jan-28 13:15 224 5 12.2
2020-Jan-28 13:01 205 5 12.2
2020-Jan-28 12:45 161 5 11.7
2020-Jan-28 12:31 209 3 11.7
2020-Jan-28 12:15 192 4 11.7
2020-Jan-28 12:00 206 5 11.7
2020-Jan-28 11:45 243 5 11.1
2020-Jan-28 11:30 199 5 11.1
2020-Jan-28 11:15 187 4 10.6
2020-Jan-28 11:00 235 4 10.6
2020-Jan-28 10:45 203 5 10.0
2020-Jan-28 10:30 202 3 10.0
2020-Jan-28 10:15 215 4 10.0
2020-Jan-28 10:00 192 3 9.4
2020-Jan-28 09:45 210 4 9.4
2020-Jan-28 09:30 227 4 9.4
2020-Jan-28 09:17 241 2 9.4
2020-Jan-28 09:03 194 1 9.4
2020-Jan-28 08:46 202 2 8.9
2020-Jan-28 08:18 192 2 8.9
2020-Jan-28 08:03 224 2 8.9
2020-Jan-28 07:46 231 0 8.9
2020-Jan-28 07:17 181 1 8.9
2020-Jan-28 07:01 221 1 8.9
2020-Jan-28 07:00 221 1 8.9
2020-Jan-28 06:48 200 3 8.9
2020-Jan-28 06:33 238 4 8.3
2020-Jan-28 06:16 208 3 8.3
2020-Jan-28 05:46 196 4 8.3
2020-Jan-28 05:31 225 3 8.3
2020-Jan-28 05:17 227 5 8.9
2020-Jan-28 04:47 223 4 8.3
2020-Jan-28 04:32 211 3 8.3
2020-Jan-28 04:16 244 3 8.3
2020-Jan-28 03:46 274 2 8.3
2020-Jan-28 03:31 211 6 8.3
2020-Jan-28 03:16 202 6 8.3
2020-Jan-28 02:46 229 6 8.3
2020-Jan-28 02:32 250 4 7.8
2020-Jan-28 02:17 233 5 7.8
2020-Jan-28 01:46 201 6 7.8
2020-Jan-28 01:31 199 6 7.8
2020-Jan-28 01:17 244 6 7.8
2020-Jan-28 00:45 214 6 7.8
2020-Jan-28 00:31 216 5 7.8
2020-Jan-28 00:15 228 6 7.8
2020-Jan-27 23:45 199 4 7.8
2020-Jan-27 23:31 198 3 7.8
2020-Jan-27 23:16 229 4 7.2
2020-Jan-27 22:45 175 5 7.8
2020-Jan-27 22:32 230 4 7.2
2020-Jan-27 22:16 209 5 7.2
2020-Jan-27 21:46 205 3 7.2
2020-Jan-27 21:31 232 3 7.2
2020-Jan-27 21:15 230 4 7.2
2020-Jan-27 20:45 193 2 7.2
2020-Jan-27 20:30 226 3 7.2
2020-Jan-27 20:15 190 3 7.2
2020-Jan-27 19:45 202 5 7.2
2020-Jan-27 19:30 210 4 7.2
2020-Jan-27 19:15 203 5 7.2
2020-Jan-27 18:46 200 3 7.8
2020-Jan-27 18:30 226 6 7.8
2020-Jan-27 18:16 247 5 7.8
2020-Jan-27 17:46 207 4 7.8
2020-Jan-27 17:30 215 3 7.8
2020-Jan-27 17:16 173 1 7.8
2020-Jan-27 16:46 195 5 8.3
2020-Jan-27 16:30 241 5 7.8
2020-Jan-27 16:16 212 6 7.8
2020-Jan-27 15:45 256 4 7.2
2020-Jan-27 15:30 178 2 7.2
2020-Jan-27 15:15 205 2 7.2
2020-Jan-27 14:45 218 6.1
2020-Jan-27 14:30 212 2 5.6
2020-Jan-27 14:15 213 2 5.6
2020-Jan-27 13:45 206 5.0
2020-Jan-27 13:30 265 5.0
2020-Jan-27 13:15 266 5.0
2020-Jan-27 12:45 268 4.4
2020-Jan-27 12:30 268 4.4
2020-Jan-27 12:15 334 4.4
2020-Jan-27 11:45 215 4.4
2020-Jan-27 11:30 207 0 4.4
2020-Jan-27 11:15 174 0 4.4
2020-Jan-27 10:45 206 0 3.9
2020-Jan-27 10:32 205 4.4
2020-Jan-27 10:30 205 4.4
2020-Jan-27 10:17 205 4.4
2020-Jan-27 09:45 183 0 3.9
2020-Jan-27 09:30 218 3.9
2020-Jan-27 09:19 218 3.9
2020-Jan-27 08:47 317 3.3
2020-Jan-27 08:32 317 3.3
2020-Jan-27 08:17 317 3.3
2020-Jan-27 07:47 319 2.8
2020-Jan-27 07:33 319 2.8
2020-Jan-27 07:17 319 2.8
2020-Jan-27 06:47 201 2.8
2020-Jan-27 06:32 199 2.8
2020-Jan-27 06:17 199 2.8
2020-Jan-27 05:46 198 2.8
2020-Jan-27 05:33 197 0 2.8
2020-Jan-27 05:16 307 2.8
2020-Jan-27 04:47 323 2.8
2020-Jan-27 04:32 322 2.8
2020-Jan-27 04:17 207 2.8
2020-Jan-27 03:46 204 3.3
2020-Jan-27 03:31 204 2.8
2020-Jan-27 03:17 203 2.8
2020-Jan-27 02:48 209 3.3
2020-Jan-27 02:31 209 3.9
2020-Jan-27 02:17 209 3.9